Station CHAO3 - 9432780 - Charleston, OR Image indicating link to RSS feed of recent meteorological observations for station CHAO3


Conditions at CHAO3 as of
(5:36 pm PDT on 05/20/2024)
0036 GMT on 05/21/2024:
     

Click on the graph icon in the table below to see a time series plot of the last five days of that observation.

5-day plot - Wind Direction Wind Direction (WDIR): N ( 10 deg true )
5-day plot - Wind Speed Wind Speed (WSPD): 5.1 kts
5-day plot - Wind Gust Wind Gust (GST): 12.0 kts
5-day plot - Atmospheric Pressure Atmospheric Pressure (PRES):30.28 in
5-day plot - Wind Speed at 10 Meters Wind Speed at 10 meters (WSPD10M): 5.8 kts
5-day plot - Wind Speed at 20 Meters Wind Speed at 20 meters (WSPD20M): 5.8 kts
5-day plot -  Wind Speed, Wind Gust and Atmospheric Pressure Combined plot of Wind Speed, Gust, and Air Pressure
NOS Water Level Observation Network Water Level
Previous observations
TIME
(PDT)
5-day plot - Wind Direction
WDIR
 
5-day plot - Wind Speed
WSPD
kts
5-day plot - Wind Gust
GST
kts
5-day plot - Wave Height
WVHT
ft
5-day plot - Dominant Wave Period
DPD
sec
5-day plot - Average Wave Period
APD
sec
5-day plot - Mean Wave Direction
MWD
 
5-day plot - Atmospheric Pressure
PRES
in
5-day plot - Pressure Tendency
PTDY
in
5-day plot - Air Temperature
ATMP
°F
5-day plot - Water Temperature
WTMP
°F
5-day plot - Dew Point
DEWP
°F
5-day plot - Salinity
SAL
psu
5-day plot - Visibility
VIS
nmi
5-day plot - Tide (above MLLW)
TIDE
ft
2024-05-20 05:30 pm N 8.0 12.0----30.27-------
2024-05-20 05:24 pm N 7.0 12.0----30.27-------
2024-05-20 05:18 pm N 8.0 13.0----30.27-------
2024-05-20 05:12 pm N 8.9 14.0----30.28-------
2024-05-20 05:06 pm N 9.9 14.0----30.28-------
2024-05-20 05:00 pm N 8.0 11.1----30.28-0.01------
2024-05-20 04:54 pm N 7.0 12.0----30.28-------
2024-05-20 04:48 pm N 6.0 14.0----30.28-------
2024-05-20 04:42 pm N 8.0 13.0----30.28-------
2024-05-20 04:36 pm N 8.9 15.0----30.28-------
2024-05-20 04:30 pm N 8.9 12.0----30.28-------
2024-05-20 04:24 pm N 7.0 12.0----30.28-------
2024-05-20 04:18 pm N 8.9 12.0----30.28-------
2024-05-20 04:12 pm N 8.9 13.0----30.28-------
2024-05-20 04:06 pm N 8.9 15.0----30.29-------
2024-05-20 04:00 pm N 8.9 15.0----30.29+0.00------
2024-05-20 03:36 pm N 9.9 14.0----30.29-------
2024-05-20 03:30 pm N 11.1 14.0----30.29-------
2024-05-20 03:24 pm N 11.1 15.0----30.29-------
2024-05-20 03:18 pm N 9.9 15.0----30.29-------
2024-05-20 03:12 pm N 11.1 14.0----30.29-------
2024-05-20 03:06 pm N 8.9 15.9----30.29-------
2024-05-20 03:00 pm N 9.9 15.0----30.29+0.00------
2024-05-20 02:54 pm N 13.0 15.9----30.29-------
2024-05-20 02:48 pm N 13.0 18.1----30.29-------
2024-05-20 02:42 pm N 12.0 15.0----30.29-------
2024-05-20 02:36 pm N 12.0 17.1----30.29-------
2024-05-20 02:30 pm N 13.0 17.1----30.29-------
2024-05-20 02:24 pm N 12.0 17.1----30.29-------
2024-05-20 02:18 pmNNW 14.0 18.1----30.29-------
2024-05-20 02:12 pmNNW 14.0 18.1----30.29-------
2024-05-20 02:06 pmNNW 14.0 18.1----30.29-------
2024-05-20 02:00 pmNNW 14.0 17.1----30.29-0.02------
2024-05-20 01:54 pmNNW 13.0 15.9----30.29-------
2024-05-20 01:48 pmNNW 12.0 15.0----30.29-------
2024-05-20 01:42 pmNNW 13.0 15.9----30.29-------
2024-05-20 01:36 pm N 12.0 15.9----30.29-------
2024-05-20 01:30 pmNNW 12.0 15.9----30.29-------
2024-05-20 01:24 pmNNW 14.0 17.1----30.29-------
2024-05-20 01:18 pmNNW 13.0 15.9----30.29-------
2024-05-20 01:12 pm N 12.0 15.9----30.29-------
2024-05-20 01:06 pm N 13.0 17.1----30.29-------
2024-05-20 01:00 pmNNW 14.0 18.1----30.29+0.00------
2024-05-20 12:54 pmNNW 13.0 15.9----30.29-------
2024-05-20 12:48 pmNNW 13.0 17.1----30.29-------
2024-05-20 12:42 pmNNW 14.0 18.1----30.29-------
2024-05-20 12:36 pmNNW 14.0 17.1----30.29-------
2024-05-20 12:30 pm N 12.0 15.9----30.29-------
2024-05-20 12:24 pm N 13.0 17.1----30.29-------
2024-05-20 12:18 pm N 13.0 17.1----30.29-------
2024-05-20 12:12 pmNNW 13.0 17.1----30.30-------
2024-05-20 12:06 pm N 12.0 17.1----30.30-------
2024-05-20 12:00 pm N 8.9 15.9----30.30+0.00------
2024-05-20 11:54 am N 12.0 15.9----30.30-------
2024-05-20 11:48 am N 12.0 19.0----30.30-------
2024-05-20 11:42 amNNW 15.9 19.0----30.30-------
2024-05-20 11:36 am N 15.0 19.0----30.30-------
2024-05-20 11:30 am N 15.9 20.0----30.30-------
2024-05-20 11:24 amNNW 15.9 19.0----30.30-------
2024-05-20 11:18 amNNW 15.0 18.1----30.30-------
2024-05-20 11:12 am N 13.0 15.9----30.30-------
2024-05-20 11:06 amNNW 12.0 15.0----30.30-------
2024-05-20 11:00 amNNW 12.0 15.0----30.30+0.00------
2024-05-20 10:54 am N 12.0 14.0----30.30-------
2024-05-20 10:48 am N 11.1 15.0----30.30-------
2024-05-20 10:42 am N 9.9 13.0----30.30-------
2024-05-20 10:36 amNNW 9.9 13.0----30.30-------
2024-05-20 10:30 amNNW 9.9 14.0----30.30-------
2024-05-20 10:24 amNNW 11.1 14.0----30.30-------
2024-05-20 10:18 amNNW 12.0 13.0----30.30-------
2024-05-20 10:12 amNNW 9.9 13.0----30.30-------
2024-05-20 10:06 amNNW 11.1 12.0----30.30-------
2024-05-20 10:00 amNNW 8.9 12.0----30.30+0.00------
2024-05-20 09:54 amNNW 8.9 9.9----30.30-------
2024-05-20 09:48 amNNW 5.1 8.0----30.30-------
2024-05-20 09:42 amNNW 7.0 8.0----30.30-------
2024-05-20 09:36 amNNW 6.0 8.0----30.30-------
2024-05-20 09:30 amNNW 5.1 8.0----30.30-------
2024-05-20 09:24 amNNW 6.0 8.0----30.30-------
2024-05-20 09:18 amNNW 6.0 8.9----30.30-------
2024-05-20 09:12 amNNW 7.0 8.9----30.30-------
2024-05-20 09:06 amNNW 6.0 7.0----30.30-------
2024-05-20 09:00 amNNW 6.0 7.0----30.30+0.02------
2024-05-20 08:54 amNNW 6.0 8.0----30.30-------
2024-05-20 08:48 amNNW 7.0 8.0----30.30-------
2024-05-20 08:42 amNNW 6.0 7.0----30.30-------
2024-05-20 08:36 amNNW 5.1 5.1----30.30-------
2024-05-20 08:30 am N 5.1 7.0----30.30-------
2024-05-20 08:24 am N 2.9 5.1----30.30-------
2024-05-20 08:18 am N 2.9 4.1----30.30-------
2024-05-20 08:12 amNNE 1.9 6.0----30.30-------
2024-05-20 08:06 am NE 4.1 5.1----30.30-------
2024-05-20 08:00 amNNE 1.9 4.1----30.30+0.01------
2024-05-20 07:54 am E 1.9 4.1----30.30-------
2024-05-20 07:48 am E 2.9 4.1----30.30-------
2024-05-20 07:42 am E 2.9 5.1----30.30-------
2024-05-20 07:36 am E 2.9 5.1----30.30-------
2024-05-20 07:30 am E 2.9 5.1----30.30-------
2024-05-20 07:24 am E 4.1 4.1----30.30-------
2024-05-20 07:18 am E 2.9 6.0----30.30-------
2024-05-20 07:12 am E 2.9 4.1----30.30-------
2024-05-20 07:06 am E 2.9 4.1----30.30-------
2024-05-20 07:00 am E 2.9 5.1----30.29+0.01------
2024-05-20 06:54 am E 4.1 5.1----30.29-------
2024-05-20 06:48 am E 2.9 5.1----30.30-------
2024-05-20 06:42 am NE 4.1 5.1----30.30-------
2024-05-20 06:36 am NE 1.9 4.1----30.29-------
2024-05-20 06:30 am NE 1.9 2.9----30.29-------
2024-05-20 06:24 am NE 2.9 4.1----30.29-------
2024-05-20 06:18 amNNE 1.9 4.1----30.29-------
2024-05-20 06:12 amNNE 2.9 4.1----30.29-------
2024-05-20 06:06 am NE 1.9 4.1----30.29-------
2024-05-20 06:00 am NE 1.9 4.1----30.29+0.00------
2024-05-20 05:54 am NE 1.9 2.9----30.29-------
2024-05-20 05:48 am NE 1.9 4.1----30.29-------
2024-05-20 05:42 am NE 2.9 5.1----30.29-------
2024-05-20 05:36 am NE 4.1 5.1----30.29-------
2024-05-20 05:30 am NE 4.1 7.0----30.28-------
2024-05-20 05:24 amNNE 4.1 6.0----30.29-------
2024-05-20 05:18 amNNE 4.1 5.1----30.29-------
2024-05-20 05:12 amNNE 2.9 4.1----30.29-------
2024-05-20 05:06 amNNE 4.1 5.1----30.29-------
2024-05-20 05:00 am N 2.9 4.1----30.29+0.00------
2024-05-20 04:54 amNNW 1.0 2.9----30.29-------
2024-05-20 04:48 am N 1.9 4.1----30.29-------
2024-05-20 04:42 am N 1.9 4.1----30.29-------
2024-05-20 04:36 am N 1.9 2.9----30.29-------
2024-05-20 04:30 amNNE 2.9 4.1----30.29-------
2024-05-20 04:24 am N 1.9 2.9----30.29-------
2024-05-20 04:18 am N 1.9 4.1----30.29-------
2024-05-20 04:12 am NE 2.9 4.1----30.28-------
2024-05-20 04:06 amENE 1.9 4.1----30.28-------
2024-05-20 04:00 amENE 2.9 5.1----30.28-0.01------
2024-05-20 03:54 amENE 2.9 4.1----30.29-------
2024-05-20 03:48 amENE 4.1 5.1----30.29-------
2024-05-20 03:42 amENE 2.9 5.1----30.29-------
2024-05-20 03:36 amENE 4.1 6.0----30.29-------
2024-05-20 03:30 am NE 4.1 5.1----30.29-------
2024-05-20 03:24 amENE 2.9 5.1----30.29-------
2024-05-20 03:18 amENE 2.9 5.1----30.29-------
2024-05-20 03:12 am NE 1.9 4.1----30.29-------
2024-05-20 03:06 amNNE 4.1 5.1----30.29-------
2024-05-20 03:00 amNNE 4.1 6.0----30.29+0.00------
2024-05-20 02:54 amNNE 2.9 7.0----30.29-------
2024-05-20 02:48 amNNE 4.1 7.0----30.29-------
2024-05-20 02:42 amNNE 5.1 8.9----30.29-------
2024-05-20 02:36 amNNE 1.9 6.0----30.29-------
2024-05-20 02:30 am NE 2.9 6.0----30.29-------
2024-05-20 02:24 amNNE 4.1 7.0----30.29-------
2024-05-20 02:18 amNNE 5.1 8.0----30.29-------
2024-05-20 02:12 amNNE 4.1 6.0----30.29-------
2024-05-20 02:06 am NE 2.9 6.0----30.29-------
2024-05-20 02:00 amNNE 5.1 7.0----30.29+0.00------
2024-05-20 01:54 am NE 4.1 7.0----30.29-------
2024-05-20 01:48 am NE 4.1 6.0----30.30-------
2024-05-20 01:42 amNNE 6.0 7.0----30.30-------
2024-05-20 01:36 amNNE 6.0 8.9----30.30-------
2024-05-20 01:30 amNNE 5.1 8.9----30.30-------
2024-05-20 01:24 am N 5.1 9.9----30.30-------
2024-05-20 01:18 amNNE 6.0 11.1----30.30-------
2024-05-20 01:12 amNNE 8.0 11.1----30.30-------
2024-05-20 01:06 amNNE 8.0 13.0----30.30-------
2024-05-20 01:00 amNNE 9.9 14.0----30.30+0.00------
2024-05-20 12:54 am NE 8.9 12.0----30.30-------
2024-05-20 12:48 am NE 8.9 11.1----30.30-------
2024-05-20 12:42 am NE 8.9 11.1----30.30-------
2024-05-20 12:36 amENE 7.0 9.9----30.30-------
2024-05-20 12:30 amNNE 8.0 13.0----30.30-------
2024-05-20 12:24 amNNE 8.9 12.0----30.30-------
2024-05-20 12:18 amNNE 7.0 12.0----30.30-------
2024-05-20 12:12 amNNE 7.0 13.0----30.29-------
2024-05-20 12:06 am N 8.0 12.0----30.29-------
2024-05-20 12:00 amNNE 8.0 11.1----30.29+0.01------
2024-05-19 11:54 pmNNE 8.9 12.0----30.30-------
2024-05-19 11:48 pm N 8.9 14.0----30.30-------
2024-05-19 11:42 pm N 8.9 13.0----30.30-------
2024-05-19 11:36 pmNNE 8.9 12.0----30.30-------
2024-05-19 11:30 pmNNE 8.0 11.1----30.30-------
2024-05-19 11:24 pmNNE 7.0 9.9----30.30-------
2024-05-19 11:18 pmNNE 8.9 12.0----30.30-------
2024-05-19 11:12 pmNNE 8.0 11.1----30.30-------
2024-05-19 11:06 pmNNE 7.0 9.9----30.30-------
2024-05-19 11:00 pm NE 7.0 11.1----30.30+0.02------
2024-05-19 10:54 pm NE 8.0 9.9----30.30-------
2024-05-19 10:48 pm NE 7.0 8.9----30.30-------
2024-05-19 10:42 pm NE 6.0 12.0----30.30-------
2024-05-19 10:36 pmNNE 8.0 11.1----30.30-------
2024-05-19 10:30 pmNNE 7.0 12.0----30.30-------
2024-05-19 10:24 pmNNE 7.0 13.0----30.30-------
2024-05-19 10:18 pm N 8.0 13.0----30.30-------
2024-05-19 10:12 pm N 9.9 15.0----30.30-------
2024-05-19 10:06 pm N 8.9 14.0----30.29-------
2024-05-19 10:00 pm N 11.1 15.0----30.29+0.01------
2024-05-19 09:54 pm N 8.0 14.0----30.29-------
2024-05-19 09:48 pm N 9.9 15.9----30.29-------
2024-05-19 09:42 pm N 8.9 15.0----30.29-------
2024-05-19 09:36 pm N 8.0 13.0----30.29-------
2024-05-19 09:30 pm N 8.9 13.0----30.29-------
2024-05-19 09:24 pm N 8.9 13.0----30.28-------
2024-05-19 09:18 pm N 8.9 14.0----30.28-------
2024-05-19 09:12 pm N 8.9 14.0----30.28-------
2024-05-19 09:06 pm N 8.0 13.0----30.28-------
2024-05-19 09:00 pm N 8.9 12.0----30.28-------
2024-05-19 08:54 pmNNE 8.9 13.0----30.28-------
2024-05-19 08:48 pm N 7.0 15.0----30.28-------
2024-05-19 08:42 pm N 8.9 15.9----30.28-------
2024-05-19 08:36 pm N 8.9 15.0----30.28-------
2024-05-19 08:30 pm N 7.0 15.0----30.28-------
2024-05-19 08:24 pm N 8.0 13.0----30.28-------
2024-05-19 08:18 pm N 5.1 9.9----30.28-------
2024-05-19 08:12 pm N 6.0 11.1----30.28-------
2024-05-19 08:06 pmNNE 8.0 12.0----30.28-------
2024-05-19 08:00 pm N 7.0 11.1----30.27-0.01------
2024-05-19 07:54 pmNNE 8.9 11.1----30.27-------
2024-05-19 07:48 pmNNE 7.0 12.0----30.27-------
2024-05-19 07:42 pm N 8.0 12.0----30.27-------
2024-05-19 07:36 pm N 6.0 9.9----30.28-------
2024-05-19 07:30 pm N 6.0 11.1----30.27-------
2024-05-19 07:24 pmNNE 8.0 11.1----30.28-------
2024-05-19 07:18 pm N 6.0 13.0----30.28-------
2024-05-19 07:12 pm N 7.0 11.1----30.28-------
2024-05-19 07:06 pm N 7.0 11.1----30.28-------
2024-05-19 07:00 pm N 8.0 11.1----30.28-0.01------
2024-05-19 06:54 pm N 8.0 12.0----30.28-------
2024-05-19 06:48 pm N 7.0 14.0----30.28-------
2024-05-19 06:42 pm N 8.9 15.0----30.28-------
2024-05-19 06:36 pm N 9.9 13.0------------
2024-05-19 06:30 pm N 13.0 15.9------------
2024-05-19 06:24 pm N 12.0 15.0------------
2024-05-19 06:18 pm N 8.9 12.0------------
2024-05-19 06:12 pm N 6.0 12.0------------
2024-05-19 06:06 pm N 7.0 12.0------------
2024-05-19 06:00 pm N 8.0 12.0------------
2024-05-19 05:54 pm N 8.0 11.1------------